Uncategorized

2021 Ratings: SEC 1 (Hudson Mills)

The Reference Runner Method
(This meet, especially the boys race, is a perfect representation of this method. Extremely strong field that would be overrated with graphing, but comparing against past performance emits a distinct pattern)

Girls Adjustment: -20
Boys Adjustment: -19

GradeNameTimeTeamRating
10Rachel Forsyth18:37.6Ann Arbor Pioneer154.1
11Emily Cooper18:45.7Ann Arbor Pioneer151.4
12Sarah Forsyth19:01.0Ann Arbor Pioneer146.3
12Maddie Stern19:11.4Saline142.9
10Natalie Mello19:18.4Ann Arbor Pioneer140.5
12Madi Wood19:19.5Saline140.2
12Amanda McGill19:26.9Dexter137.7
12Charlotte Batra19:45.1Ann Arbor Pioneer131.6
9Alena Blumberg20:02.4Dexter125.9
12Lydia Alig20:03.5Saline125.5
10Allison Mayer20:09.0Ann Arbor Skyline123.7
10Laney Alig20:12.2Saline122.6
9Lucinda Paliani20:17.5Ann Arbor Huron120.8
9Sienna Snyder20:19.0Saline120.3
11Mia Rogan20:20.7Saline119.8
9Corynn Gady20:31.3Saline116.2
12Hannah McComas20:33.9Dexter115.4
11Natalie Kessler20:34.9Ann Arbor Skyline115.0
11Aubrey Stager20:39.1Saline113.6
10Kate Varitek20:46.1Dexter111.3
11Chesney Wilke20:53.7Tecumseh108.8
10Sonya Shelgikar20:53.9Ann Arbor Huron108.7
9Grace Roth20:53.9Saline108.7
11Caroline Vance20:59.2Ann Arbor Skyline106.9
11Lydia Cocciolone21:01.4Ann Arbor Skyline106.2
10Trilian Krug21:03.5Chelsea105.5
10Viktoria Bloniarz21:03.9Monroe105.4
11Allison Nutt21:05.6Ann Arbor Pioneer104.8
10Olivia Perrine21:10.5Jackson103.2
10Celia Begosso21:18.3Ann Arbor Skyline100.6
9Sophy Skeels21:20.2Adrian99.9
9Mackenzie Sellenraad21:23.7Saline98.8
12Ashley Mitchell21:31.2Dexter96.3
12Emma Moore21:33.2Pinckney95.6
12Claire Endres21:34.7Saline95.1
11Kaylee Pesta21:43.8Tecumseh92.1
10Lucy Woehlke21:46.6Saline91.1
12Kate Gaiser21:48.7Chelsea90.4
11Rachel Overgaard21:52.9Ann Arbor Huron89.0
9Abby Roth21:53.2Saline88.9
12Lauren Kaus21:53.7Pinckney88.8
11Quinn Hilla21:59.4Dexter86.9
10Anastee Davis22:03.8Adrian85.4
11Annalisa DeGuzman22:07.1Ann Arbor Skyline84.3
9Natalia DeMea22:08.5Chelsea83.8
12Bridgette Dudley22:11.4Monroe82.9
12Madi Heinrichs22:14.2Temperance Bedford81.9
10Avery Bogdasarian22:16.4Saline81.2
12Annissa Sisson22:18.8Dexter80.4
9Annabel O’Haver22:23.9Dexter78.7
12Mallory Farmer22:26.8Pinckney77.7
10Brianna Wheaton22:33.5Pinckney75.5
10Yoselin Fermin-Cam…22:37.4Adrian74.2
10Nancy Gage22:41.9Saline72.7
11Julia Kause22:45.0Chelsea71.7
11Emma Abbott22:55.6Tecumseh68.1
12Maekayla Rice22:59.2Saline66.9
11Emily Ma23:02.7Ann Arbor Huron65.8
10Sarah Conley23:03.0Ann Arbor Huron65.7
12Caitlyn Donnelly23:03.4Ann Arbor Skyline65.5
9Avery Lawrence23:04.8Dexter65.1
9Ayla Balazer23:06.3Ann Arbor Skyline64.6
11Kelsey Knape23:10.6Tecumseh63.1
11Morgan Kay23:11.7Monroe62.8
12Emma Hilbert23:14.3Ann Arbor Pioneer61.9
11Emily Stevenson23:15.4Tecumseh61.5
9Lizzie Thibeault23:19.0Saline60.3
11Maya Goncalves23:19.1Ypsilanti Lincoln60.3
10Diane Weber23:19.6Ypsilanti Lincoln60.1
12Meghan McGill23:19.9Dexter60.0
11Miranda Nielsen23:20.4Ann Arbor Skyline59.9
9Addison Streetman23:22.2Dexter59.3
9Maddie Rogan23:26.0Saline58.0
10Rebecca Rummel23:28.1Saline57.3
11Fiona Shangguan23:30.1Ann Arbor Skyline56.6
10Serena O’Brien23:30.7Ann Arbor Skyline56.4
9Madison Morris23:37.4Tecumseh54.2
11Katie Fischer23:41.5Adrian52.8
10Allisyn Pagel23:44.7Adrian51.8
11Madeline Hood23:46.4Ann Arbor Pioneer51.2
11Brooke Matusik23:48.2Chelsea50.6
10Sydney Whittemore23:49.7Tecumseh50.1
9Jessica Warren23:52.0Tecumseh49.3
11Naomi Kaczor23:54.6Ann Arbor Pioneer48.5
9Clara Peikert23:56.5Ann Arbor Pioneer47.8
10Anneliese Jones24:01.4Ann Arbor Pioneer46.2
11Grace Finley24:01.5Monroe46.2
9Jaya Shah24:04.1Ann Arbor Huron45.3
11Elizabeth Beck24:05.0Ann Arbor Skyline45.0
10Eleanor Vogel24:06.0Ann Arbor Pioneer44.7
10Stella Niemi24:06.4Dexter44.5
9Hannah Sisson24:14.1Dexter42.0
10Karissa Halter24:27.9Temperance Bedford37.4
12Mari Park24:30.3Ann Arbor Huron36.6
10Cyprus Gabriel-Men…24:32.5Chelsea35.8
10Jaya Boggess24:32.5Ann Arbor Pioneer35.8
10Samantha Dark24:34.3Chelsea35.2
10Mikayla Butters24:38.1Jackson34.0
12Kate Froedtert24:39.9Jackson33.4
10Ella Mitchell24:40.8Dexter33.1
12Amilia Jones24:44.1Jackson32.0
12Margaret Lewis24:45.8Dexter31.4
12Elena Bowman24:48.3Ann Arbor Pioneer30.6
12Emma Grill24:49.7Saline30.1
9Carrie Schwartz24:53.7Saline28.8
11Kiera Tuttle24:58.7Saline27.1
9Karis Lollar25:01.1Saline26.3
9Avanti Ganesan25:03.6Ann Arbor Pioneer25.5
12Joanna Wallace25:04.2Pinckney25.3
9Mara McClellan25:08.3Saline23.9
9Madalyyn Karsies25:12.4Pinckney22.5
12Melanie Valtadoros25:15.0Ann Arbor Pioneer21.7
10Soleil Weaver25:15.9Pinckney21.4
12Bekah Etherington25:16.2Pinckney21.3
9Lucy Pike25:16.4Ann Arbor Pioneer21.2
10Marah Putnam25:18.9Chelsea20.4
11Claire Stanko25:21.0Ann Arbor Pioneer19.7
11Taylor Wetherbee25:21.6Saline19.5
10Sienna Tovar25:22.4Jackson19.2
12Brynn Richardson25:24.0Tecumseh18.7
12Autumn Cuthbert25:31.3Tecumseh16.2
11Juna Hume-Clark25:38.2Ypsilanti Lincoln13.9
10Elle Nowak25:43.5Tecumseh12.2
12Sophie Woehlke25:49.5Saline10.2
9Adelle Robinson25:53.2Temperance Bedford8.9
10Lola Vencill25:53.9Dexter8.7
9Isabella Morris25:56.5Adrian7.8
9Anika Hill25:56.6Temperance Bedford7.8
10Kate Graydon26:01.2Dexter6.3
10Madelyn Hagerty26:04.7Pinckney5.1
10Caitlin Mertens26:07.1Ypsilanti Lincoln4.3
9Kylie Warner26:09.7Saline3.4
9Jasmine Boggy26:13.1Ann Arbor Pioneer2.3
12Emily Peterson26:16.1Tecumseh1.3
9Reese Oberski26:17.2Temperance Bedford0.9

GradeNameTimeTeamRating
12Caleb Jarema15:41.5Pinckney212.5
10Connell Alford15:59.8Chelsea206.4
12Owen Johnson16:01.5Ann Arbor Pioneer205.8
11Bram Hartsuff16:09.8Chelsea203.1
12Ethan Leitner16:15.8Tecumseh201.1
10Braylon Petty16:25.2Adrian197.9
11Nicolas Fry16:32.5Ann Arbor Skyline195.5
11Luke Butler16:33.7Monroe195.1
12Matt Ruud16:38.7Ann Arbor Pioneer193.4
11Bryce Soule16:42.7Adrian192.1
12Max Pfeiffer16:43.0Saline192.0
11Aiden Smith16:44.5Adrian191.5
11Ben Richards16:46.8Pinckney190.7
12Sanjay Rao16:53.8Ann Arbor Skyline188.4
11Roman Cortina16:56.0Ann Arbor Pioneer187.7
10Brandon Anderson16:57.8Dexter187.1
12Adam Hauser17:04.1Dexter185.0
11Ben Schefka17:05.4Adrian184.5
10Evan Loughridge17:06.1Pinckney184.3
10Luke Suliman17:09.6Ann Arbor Skyline183.1
10Eric Overdier17:11.0Ann Arbor Pioneer182.7
10Vincent Peterson S…17:11.6Ann Arbor Pioneer182.5
11Zach Debeauclair17:15.9Pinckney181.0
10Aaron Sterken17:16.8Ann Arbor Pioneer180.7
10Ethan Sandula17:19.4Pinckney179.9
12Josh Lamb17:21.3Dexter179.2
12Nathaniel Hobbs17:21.8Jackson179.1
10Jackson Dell17:23.6Chelsea178.5
12Eli Wiegman17:25.9Ann Arbor Huron177.7
11Owen Ackerman17:29.0Dexter176.7
12Chadwick Perrine17:30.6Jackson176.1
12Andrew Stern17:32.8Saline175.4
12Jonas Norwood17:35.3Chelsea174.6
11Jason Whitton17:38.9Saline173.4
12Peter Florence17:41.5Ann Arbor Pioneer172.5
12James Harrison17:42.9Saline172.0
12Matthew Dowling17:43.1Ann Arbor Huron172.0
10Paul Moore17:43.4Pinckney171.9
12Alexander Ortiz17:43.7Temperance Bedford171.8
11Chase Klapthor17:44.5Ann Arbor Pioneer171.5
11Samuel Jackson17:44.6Saline171.5
11Jake Eagling17:49.3Adrian169.9
12Lev Nakamura17:50.3Ann Arbor Huron169.6
12Peyton Williams17:51.4Jackson169.2
11Nick Spruce17:53.7Chelsea168.4
11Alex Hoffman17:54.1Dexter168.3
11Shane Pitcher18:00.4Saline166.2
12Jadon Sterken18:02.9Ann Arbor Pioneer165.4
10Wyatt McNamara18:08.8Ann Arbor Skyline163.4
12Tyler Nowak18:10.3Tecumseh162.9
11Zebedee Swager18:11.8Chelsea162.4
11Christopher Van Lent18:11.8Ann Arbor Skyline162.4
11Adam Bigelow18:13.1Ann Arbor Huron162.0
9Riley Smith18:13.3Adrian161.9
12Griffin Bentley18:17.8Dexter160.4
12Samuel Kulczak18:19.8Saline159.7
10Grant Fahle18:23.6Tecumseh158.5
10Patrick Donoghue18:24.8Ann Arbor Pioneer158.1
12Nick Parran18:28.6Monroe156.8
12Zachary Sawin18:28.7Dexter156.8
11Joshua Gagne18:31.0Temperance Bedford156.0
9Landyn Soule18:31.8Adrian155.7
9Walker Brose18:34.5Ann Arbor Huron154.8
9Zach Newman18:35.0Pinckney154.7
12Preston Ulery18:39.8Temperance Bedford153.1
9Scott Smith18:40.6Dexter152.8
11Ethan Kapolka18:43.9Chelsea151.7
12Alex Apetroaei18:44.8Monroe151.4
11Stewart Berryhill18:47.0Saline150.7
9Nicholas Balla18:48.9Temperance Bedford150.0
12Mason Kipley18:49.9Saline149.7
11Eric VonBargen18:50.0Ann Arbor Skyline149.7
10Lucas Weintraub18:50.2Ann Arbor Huron149.6
12Micah Conner18:59.7Jackson146.4
10Andrew Foshag19:00.2Monroe146.3
12Andon Lewandowski19:00.7Ypsilanti Lincoln146.1
10Gabe Bock19:03.7Temperance Bedford145.1
9Palmer Ziemer19:05.9Tecumseh144.4
12Andy Jordan19:06.2Dexter144.3
12Nathan Mertens19:07.2Ypsilanti Lincoln143.9
12Caleb Erickson19:08.6Jackson143.5
12Aditya Sesham19:12.8Ypsilanti Lincoln142.1
11Andrew Rowe19:13.7Tecumseh141.8
10Henry Beard19:15.7Ann Arbor Huron141.1
9Jordan Bunce19:16.9Temperance Bedford140.7
10Misha McElrath19:17.6Chelsea140.5
10Jackson Nyack19:17.8Adrian140.4
12Colby Pfeiffer19:22.6Chelsea138.8
11Nicolas Jiang19:30.1Ann Arbor Huron136.3
12Grayson Eckland19:38.5Chelsea133.5
9Caleb Snyder19:41.9Dexter132.4
11Soren Nielsen19:42.0Ann Arbor Skyline132.3
10Wyatt Behrendt19:49.9Ypsilanti Lincoln129.7
10Mason Jett19:51.0Ann Arbor Skyline129.3
11Aidan Behmer19:51.7Ann Arbor Huron129.1
11Anthony Kruszka19:54.4Temperance Bedford128.2
10Maxx Adams19:58.8Monroe126.7
12Ben Lammers20:01.9Tecumseh125.7
11Joshua Schreck20:09.1Tecumseh123.3
12Donato Hovourd20:11.5Pinckney122.5
12Andrew Covalle20:15.7Jackson121.1
10Evan Richert20:17.0Ypsilanti Lincoln120.7
9Myles Bray20:17.7Monroe120.4
12Taiga Yoshida20:21.9Ann Arbor Huron119.0
10Chris Stein20:26.6Monroe117.5
12Chris Warren20:28.2Tecumseh116.9
11Gabe Sweat20:30.2Monroe116.3
9Max Marten20:32.8Tecumseh115.4
11Aidan Hale20:35.2Ann Arbor Skyline114.6
12Grey Johnson20:38.5Monroe113.5
10Marshall Peacock20:42.9Tecumseh112.0
10Adrik Ruch20:44.8Temperance Bedford111.4
9Aiden DePue20:45.4Temperance Bedford111.2
9Braxon Lake20:47.4Temperance Bedford110.5
9Theodore Sykes20:50.2Jackson109.6
12Adi Balaji20:54.1Ann Arbor Skyline108.3
10Luke Lindsay21:49.5Monroe89.8
11Ezra Mazza24:17.1Ypsilanti Lincoln40.6

Leave a Reply

Fill in your details below or click an icon to log in:

WordPress.com Logo

You are commenting using your WordPress.com account. Log Out /  Change )

Google photo

You are commenting using your Google account. Log Out /  Change )

Twitter picture

You are commenting using your Twitter account. Log Out /  Change )

Facebook photo

You are commenting using your Facebook account. Log Out /  Change )

Connecting to %s